COSMOS 2522 (752)

Last updated on Thu Oct 30 2025 00:03:21 GMT+0000 (Coordinated Universal Time)

1 42939U 17055A 25302.24755456 .00000015 00000+0 00000+0 0 9999 2 42939 64.0758 199.7439 0007558 232.4292 127.5673 2.13101949 63055
UTC large
Height (km)
Speed (km/s)
/
Latitude / Longitude
Inclination (degrees)
Orbital Period (minutes)
Azimuth
Elevation
Range (km)
Doppler Factor

Next 0 passes for location: London (51.5072 / 0.1276)

Sorry there are no passes over London.